ECMWFFLT2_sfc_thetae_162.txt.gz
Theta_e
313 316 317 317 316 302 312 311 306 308 314 309 307 307 309 307 302 299 308 306 310 315 317 326 330 331 330 334 335 333 335 337 338 335 334 334 335 336 339 340 341 343 343 346 347 349 349 350 350 350 351 352 354 354 354 355 356 356 356 358 357 358 358
311 314 320 319 320 317 312 305 309 316 317 314 307 299 305 300 296 301 305 301 303 305 302 318 328 329 329 332 334 332 336 338 336 336 337 337 336 337 339 341 345 345 345 345 346 347 348 349 349 350 352 353 355 355 354 354 355 355 354 355 354 355 357
311 314 317 316 318 320 312 309 318 307 302 301 307 304 296 296 296 299 302 304 304 305 307 313 317 320 327 332 334 333 333 334 335 337 340 341 342 341 339 340 343 345 346 346 347 347 346 348 351 351 352 352 353 354 353 352 352 353 353 352 353 354 355
311 313 312 304 308 316 318 318 313 315 309 304 302 303 304 302 296 297 299 303 301 311 310 311 317 326 328 330 331 333 334 335 336 339 340 342 342 341 340 339 340 342 346 348 348 347 346 347 350 351 351 351 350 352 352 351 351 352 353 351 352 352 353
309 304 309 306 308 306 308 308 307 309 308 311 308 307 303 301 298 298 298 297 303 313 327 322 329 332 331 332 331 335 336 337 337 340 341 344 345 344 343 342 341 339 341 344 346 348 348 348 350 351 351 352 351 352 351 351 351 350 349 350 350 352 351
304 306 311 311 311 310 308 307 306 307 305 303 299 299 308 305 301 296 298 297 306 322 334 331 332 332 333 334 336 334 338 338 340 340 341 342 342 346 347 347 345 343 342 343 343 346 349 348 348 350 351 353 351 351 352 353 353 352 350 349 351 352 353
306 309 312 315 314 313 311 310 307 310 309 307 303 295 301 305 305 306 304 300 304 323 332 332 332 334 336 337 336 336 337 339 339 339 339 341 342 344 345 347 348 347 346 345 344 346 347 348 349 350 351 352 352 354 354 355 355 354 352 351 353 354 353
310 311 313 315 314 314 310 310 311 309 306 307 305 305 307 303 304 302 302 299 304 328 332 335 333 335 336 337 339 338 336 338 339 338 341 342 342 344 346 347 349 350 349 350 351 346 347 349 349 349 350 351 353 353 355 357 356 353 353 356 355 357 356
303 306 309 309 313 312 308 308 310 311 310 310 310 309 310 303 303 304 301 296 301 317 335 333 334 334 334 336 338 339 336 337 337 338 341 342 343 343 344 346 348 350 349 348 348 349 350 350 351 351 350 351 353 354 356 356 356 356 353 356 359 359 359
294 294 296 298 302 306 308 310 311 312 309 309 308 302 305 299 306 307 301 301 309 323 331 332 330 333 334 338 339 339 338 338 337 337 338 341 342 342 343 345 347 347 348 350 349 348 350 351 351 352 353 353 354 354 356 357 358 359 356 355 356 360 362
300 302 306 306 307 307 303 306 308 309 310 311 310 308 304 301 305 305 307 307 307 310 316 326 327 330 330 334 338 337 337 337 337 337 338 339 341 342 342 343 346 347 349 349 348 349 348 351 353 352 352 354 356 356 356 358 358 359 359 356 358 361 362
307 307 306 308 307 304 305 305 306 309 309 310 308 305 303 313 305 300 308 311 308 309 312 314 320 328 329 331 335 338 337 335 335 337 339 339 341 342 342 342 343 343 346 348 347 348 347 347 349 352 355 354 354 356 357 358 359 360 359 358 360 362 362
306 306 307 307 307 306 306 307 306 308 309 310 307 307 309 309 304 301 310 313 310 311 313 315 322 326 327 331 335 338 338 337 337 337 337 338 338 340 340 341 342 343 345 347 348 348 347 349 349 350 352 354 354 354 355 357 358 359 360 360 360 361 361
306 306 307 308 307 306 306 306 307 309 309 309 309 308 309 309 309 310 310 312 312 313 315 321 328 331 330 334 338 338 337 335 336 336 336 337 338 338 339 341 342 343 344 344 346 347 348 348 346 346 348 350 353 353 353 355 357 358 359 360 360 359 359
305 307 309 308 308 307 306 307 307 308 308 308 309 308 309 310 309 310 311 312 312 317 329 329 333 334 336 336 335 336 337 335 335 335 336 337 338 339 340 342 342 342 343 343 344 345 345 347 347 347 349 350 351 352 353 354 355 356 359 359 359 358 357
303 306 306 307 307 308 307 306 307 307 307 306 308 307 310 310 308 310 311 309 309 326 328 331 334 334 334 333 335 335 335 335 336 336 337 338 339 338 339 340 341 341 342 342 342 344 345 346 348 349 348 349 350 350 351 351 353 355 355 357 357 356 357
302 307 307 305 306 305 302 304 307 309 309 310 310 311 313 313 312 309 307 308 315 323 329 326 331 331 332 333 334 335 334 336 336 336 337 338 339 338 338 339 339 339 340 341 343 343 344 345 346 348 349 348 348 351 351 353 354 353 353 354 355 355 357
302 305 306 307 302 296 298 313 311 310 308 308 308 309 311 314 315 312 313 317 325 327 325 321 326 329 332 335 337 338 336 335 336 337 338 337 338 339 339 340 340 341 342 342 343 344 344 344 346 348 349 348 348 351 351 350 350 351 352 352 352 352 352
301 305 306 300 295 297 316 315 318 316 313 313 310 310 312 314 316 316 314 317 320 324 326 328 331 334 335 336 337 337 336 336 336 336 337 337 338 339 340 340 340 341 341 342 343 344 346 346 348 348 348 348 347 349 346 344 344 345 347 346 347 349 349
306 303 301 293 296 307 313 314 318 321 315 315 314 311 312 314 314 317 316 317 322 329 329 331 335 336 335 336 338 337 338 337 337 335 335 338 338 339 340 340 341 341 342 343 343 344 346 347 348 347 347 348 347 344 345 344 344 344 344 344 344 345 346
299 301 300 299 308 306 307 308 312 312 309 311 309 303 308 316 316 316 316 318 328 329 330 333 334 335 333 332 333 338 337 338 338 337 337 337 337 338 339 339 340 342 343 343 345 345 346 346 347 348 349 348 347 348 348 347 345 344 342 343 344 344 344
305 299 297 298 298 296 302 309 314 315 314 315 316 312 307 314 317 318 318 319 329 330 331 332 334 334 329 323 326 336 337 338 338 339 339 338 339 338 339 341 341 343 343 344 346 345 346 346 346 347 348 348 347 349 349 347 347 346 345 341 342 344 345
302 301 297 296 295 300 308 312 313 319 320 317 318 310 303 315 317 319 320 322 329 329 330 332 333 328 318 317 326 336 338 339 340 338 337 338 339 340 340 340 341 342 343 345 345 346 347 343 345 346 347 348 347 346 346 344 343 345 344 342 342 342 345
303 301 298 296 301 301 310 314 315 317 321 318 313 299 301 315 318 320 322 324 328 329 332 333 331 324 314 317 330 336 337 338 340 338 337 338 339 340 342 342 343 344 345 346 345 344 343 342 344 345 346 346 346 345 345 346 344 342 342 344 344 345 345
301 301 300 301 303 310 314 313 317 319 320 316 303 296 307 317 320 323 323 326 330 333 333 333 327 331 332 336 339 341 340 340 341 340 341 341 341 342 342 342 343 343 343 342 341 341 342 344 345 345 344 344 343 344 345 345 343 342 343 344 343 342 342
300 301 298 299 303 312 315 317 318 321 316 302 301 320 325 320 322 326 326 328 332 334 335 332 330 334 337 339 339 341 340 339 340 340 341 341 340 342 343 343 343 342 341 341 341 340 341 342 343 344 345 343 342 342 343 341 340 341 341 340 340 339 337
303 303 300 297 292 314 316 319 319 320 308 308 319 321 325 323 325 325 329 332 335 335 333 335 338 336 335 335 337 339 338 339 338 340 340 339 338 339 340 340 340 340 339 338 335 337 340 343 345 346 345 343 342 342 340 341 341 341 340 338 337 336 334
299 300 297 297 306 319 321 316 309 318 316 325 327 325 322 325 325 326 330 333 336 334 334 334 336 334 334 336 337 336 337 338 338 342 341 339 339 338 339 339 338 338 338 337 337 336 338 341 345 345 343 341 341 339 338 341 341 341 339 337 337 335 334
305 303 305 316 320 320 321 319 328 325 326 328 328 330 326 323 327 333 330 334 335 336 336 336 335 334 334 335 335 334 335 336 338 339 339 338 337 337 338 338 338 339 338 337 338 338 338 339 341 342 343 340 339 337 338 340 339 338 337 336 335 334 333
318 318 319 319 323 320 320 324 328 328 326 327 327 328 325 330 332 333 331 336 336 337 338 335 334 335 334 335 335 335 335 335 337 340 338 336 336 336 336 337 339 339 338 338 340 340 340 341 341 342 342 342 340 339 340 339 339 338 337 335 334 333 334
306 302 318 314 317 322 322 323 327 331 330 329 329 329 331 331 334 332 336 337 338 338 338 337 336 336 337 336 335 337 337 338 339 336 335 335 336 335 334 335 339 339 338 337 337 338 339 339 339 339 340 339 340 341 341 340 340 339 337 335 334 334 333
307 309 320 319 323 328 327 324 326 325 330 334 335 337 337 338 338 337 338 338 337 338 335 336 335 334 335 334 335 335 338 339 338 336 336 337 335 335 336 338 339 339 337 336 336 337 337 337 337 337 337 337 339 339 339 340 339 338 337 336 335 334 331
312 317 320 321 324 325 325 326 328 328 330 333 333 336 338 338 337 337 338 337 337 336 335 336 335 333 334 335 336 336 337 337 335 336 336 337 336 337 336 337 339 339 338 337 337 336 336 338 337 337 336 336 337 339 340 341 340 338 336 336 335 331 329
308 308 313 319 310 311 319 323 327 331 332 333 334 335 335 336 337 337 335 336 336 335 336 336 334 332 333 335 336 335 336 336 337 337 336 336 335 336 337 337 338 338 338 338 336 337 338 339 338 338 337 338 338 337 339 340 339 337 335 333 331 330 330
306 319 321 324 326 325 319 322 325 332 332 333 332 334 334 337 337 337 336 336 336 336 336 336 334 334 335 336 336 336 335 337 338 337 337 335 333 335 337 336 336 336 336 337 337 337 338 339 339 338 338 338 340 340 340 340 339 337 336 333 332 330 331
317 320 320 327 325 322 323 323 328 330 333 330 330 333 335 336 337 337 337 337 336 337 337 336 336 335 335 336 336 335 336 337 336 336 337 335 334 334 336 336 335 335 335 336 337 337 338 338 337 337 336 338 339 340 341 339 338 337 336 334 333 332 332
317 324 324 324 327 328 329 329 329 330 331 331 329 332 334 336 337 338 337 337 338 338 336 335 336 337 336 336 337 335 335 336 336 337 336 335 333 332 332 333 334 334 335 335 337 337 337 335 333 332 334 338 339 338 340 340 339 338 337 336 335 334 335

ECMWFFLT2_sfc_thetae_168.txt.gz
Theta_e
311 311 313 314 315 302 311 311 307 310 315 311 305 306 308 307 304 301 308 308 310 317 319 322 324 323 323 326 328 330 331 332 333 333 335 337 337 336 339 338 339 343 346 345 346 346 345 343 347 349 349 344 350 353 352 355 353 354 354 356 353 353 354
312 315 314 314 315 314 311 306 310 316 316 313 306 298 304 302 299 301 306 302 304 307 306 320 319 322 321 324 327 327 333 332 332 333 335 337 337 341 342 344 348 344 347 347 351 348 348 350 350 345 347 345 349 348 351 353 353 352 352 352 351 350 352
312 314 314 312 315 316 311 311 315 306 302 302 306 305 297 296 296 298 302 305 305 308 307 314 316 319 319 321 328 327 326 328 332 331 335 337 338 341 340 340 344 342 346 346 348 349 347 348 350 351 349 351 346 346 349 350 353 352 352 350 350 351 350
311 311 310 303 308 314 316 316 311 314 309 305 302 305 305 304 297 297 301 301 300 310 311 316 315 318 322 325 324 326 331 329 331 332 335 338 339 340 339 340 340 341 344 347 348 350 348 348 350 350 350 349 349 347 347 347 349 351 352 351 352 351 351
310 303 307 305 308 307 307 307 306 308 308 311 309 307 304 302 299 298 298 297 304 313 320 317 319 321 323 325 326 328 330 329 331 333 337 338 339 340 341 340 345 344 346 345 344 348 351 350 350 352 352 352 352 352 352 348 346 345 347 347 348 351 352
304 306 311 310 310 311 310 309 306 308 306 304 301 305 309 305 301 296 297 297 308 316 325 324 323 325 325 327 330 329 331 333 338 339 343 343 345 344 342 341 341 344 348 346 345 348 352 349 349 349 354 355 351 353 352 355 350 345 344 345 346 349 351
306 309 312 313 314 313 312 312 309 311 309 307 303 295 302 305 305 306 304 300 307 320 322 324 325 327 330 330 329 332 331 334 337 338 339 344 347 347 345 346 344 346 346 346 350 352 351 347 348 351 354 353 350 354 355 358 358 357 345 344 347 350 349
310 312 313 314 314 312 309 310 311 308 306 307 305 304 305 302 303 301 302 300 310 320 324 323 327 328 332 334 332 329 328 331 338 341 343 343 344 345 347 351 349 350 349 353 349 350 350 348 351 352 356 357 354 352 354 358 357 352 350 357 362 353 352
304 306 310 309 312 311 307 307 310 311 311 310 309 309 310 302 304 304 300 296 308 321 323 326 330 327 327 327 334 336 334 334 338 341 344 345 344 345 345 348 349 351 350 348 351 351 351 349 351 353 355 358 356 358 361 360 358 356 353 362 361 366 352
295 294 296 298 302 305 308 309 309 310 309 309 306 302 306 298 306 306 303 302 311 318 325 322 319 320 328 329 333 338 337 337 339 339 341 343 343 344 345 348 350 349 351 352 351 350 353 353 353 355 356 357 354 356 358 354 357 361 361 360 361 361 363
301 304 309 309 310 310 305 307 308 308 310 310 309 308 305 300 305 305 308 308 309 312 314 317 318 320 322 325 334 334 336 335 338 341 341 342 343 344 344 347 349 351 352 349 352 352 353 353 354 357 356 354 355 356 360 356 355 357 358 358 363 359 360
307 308 308 310 310 307 308 306 306 308 308 309 308 305 303 313 304 299 312 313 307 309 313 315 316 318 321 327 331 333 334 335 337 336 340 340 342 344 345 346 347 348 349 352 350 352 351 351 353 354 355 356 357 357 358 361 362 357 355 356 360 360 363
308 309 309 310 309 309 308 308 307 307 308 308 306 306 308 308 304 301 311 313 309 311 313 315 318 320 320 322 331 333 335 337 338 338 337 339 339 341 343 346 346 347 350 349 351 351 349 347 349 352 352 356 358 359 360 363 364 365 359 360 361 361 364
308 308 309 310 309 308 308 307 308 308 307 307 307 307 309 309 309 310 310 312 311 313 315 317 319 322 322 323 332 333 335 334 336 337 337 337 339 341 343 344 345 348 349 341 340 347 348 347 350 350 352 354 356 357 358 361 363 365 366 366 364 362 362
306 308 309 309 309 307 306 307 308 308 308 308 308 309 309 310 309 309 310 311 310 319 323 322 322 323 324 323 322 324 332 334 333 334 335 337 341 341 344 346 347 347 345 346 347 345 345 349 349 348 349 352 355 356 357 359 361 363 365 363 363 363 361
303 306 307 308 308 307 307 306 306 307 307 306 307 306 310 309 308 310 309 308 310 318 322 323 322 322 321 321 322 324 331 333 334 335 337 339 341 343 345 346 348 346 344 345 347 348 348 348 348 347 348 350 353 353 356 357 359 362 360 360 354 348 349
302 307 307 306 307 305 302 304 306 308 308 309 309 310 311 311 311 308 305 311 314 321 321 318 320 322 325 325 329 332 333 337 337 336 338 340 341 342 344 345 346 344 342 344 347 347 349 350 351 349 349 350 352 352 352 353 356 358 358 355 349 349 349
302 306 306 307 303 296 298 310 311 310 308 309 307 308 309 311 313 311 313 314 318 316 317 316 320 324 324 328 332 336 334 338 337 338 340 341 341 342 344 345 345 343 343 345 347 348 349 351 350 352 352 351 349 348 349 353 355 354 354 349 348 349 349
301 305 305 300 295 297 310 313 314 313 312 311 310 310 312 313 313 313 313 314 315 320 318 320 322 326 327 327 333 332 332 337 338 338 340 341 342 342 343 343 344 344 343 344 346 348 349 350 350 351 351 351 350 349 349 349 354 354 345 341 342 343 345
305 302 301 293 297 308 311 312 313 316 314 312 311 309 310 312 312 313 313 314 316 318 320 322 324 324 325 331 332 333 336 335 334 336 338 341 342 342 343 344 345 344 344 345 346 348 351 350 350 350 350 351 351 351 352 351 352 351 346 340 337 341 345
299 302 301 300 308 306 308 308 310 311 310 310 308 303 308 314 315 314 314 316 318 319 320 324 324 325 326 328 331 333 333 334 334 335 339 341 342 343 344 344 344 346 348 347 349 351 350 350 351 350 351 351 351 350 350 349 349 350 350 346 344 343 342
305 301 299 300 302 298 304 311 314 316 316 315 314 310 307 315 315 316 315 317 318 319 322 324 325 326 318 316 326 332 333 336 333 338 341 341 343 341 343 346 346 346 347 346 348 348 348 348 350 351 351 351 350 348 348 348 348 347 347 346 344 342 342
304 302 298 298 298 304 312 312 313 315 317 315 314 309 304 314 316 318 317 316 318 320 320 322 323 319 313 315 324 332 333 330 331 332 337 339 339 341 342 342 344 343 345 346 347 347 348 348 349 350 350 350 348 347 347 347 347 346 345 345 344 344 345
303 302 299 298 304 304 311 312 313 315 316 315 312 299 301 313 315 318 318 316 318 321 321 325 322 317 313 318 324 330 331 331 334 336 337 338 339 340 340 342 344 346 348 348 347 348 347 348 350 350 349 348 347 346 346 346 345 345 346 346 346 345 345
302 302 301 304 305 313 313 312 315 316 316 313 302 296 307 316 318 319 319 318 321 322 323 322 322 326 328 330 333 336 335 334 336 337 338 339 339 339 339 342 346 346 347 347 346 347 348 348 348 349 347 345 346 345 346 345 345 346 347 347 346 346 344
301 302 299 300 305 316 318 316 315 317 312 301 300 314 321 319 318 319 319 320 322 321 323 325 326 332 332 333 334 335 334 336 339 339 339 339 339 340 344 346 345 345 345 345 345 345 347 344 346 344 345 344 344 344 344 343 344 346 346 345 344 345 344
303 303 300 297 293 317 315 315 314 316 307 311 316 320 321 318 320 320 319 320 322 322 324 333 332 329 330 328 328 330 334 337 338 339 340 340 339 340 342 343 344 343 343 342 339 338 339 339 340 342 342 341 341 344 342 343 344 342 342 342 342 342 340
299 299 298 297 307 318 318 315 310 313 317 321 322 319 318 318 318 320 322 322 325 323 325 330 327 327 327 330 328 329 335 337 339 340 341 342 342 342 341 341 342 342 342 338 336 337 337 339 342 342 341 342 342 342 342 345 344 342 341 342 342 340 338
309 304 307 314 318 320 318 318 323 323 323 323 320 321 321 322 319 324 324 323 323 325 326 330 330 330 327 327 327 328 333 337 339 339 340 341 341 340 341 339 341 342 339 336 335 334 338 340 340 340 342 342 342 341 343 345 343 341 340 341 340 338 337
316 317 317 316 317 316 316 318 320 318 320 319 319 320 320 324 324 324 323 324 326 331 333 327 328 328 328 329 329 330 334 334 338 341 341 341 341 339 340 339 340 341 341 337 336 335 338 339 340 341 345 343 342 341 343 344 343 342 341 340 339 338 337
306 302 317 314 315 316 316 316 319 322 321 321 320 324 326 328 325 323 323 327 328 331 332 331 331 329 334 331 333 335 341 339 341 339 340 340 339 338 335 340 340 341 337 334 334 336 336 340 339 340 344 342 343 344 343 342 342 343 341 339 339 339 337
307 308 317 317 320 321 319 323 322 322 324 324 328 329 330 331 329 324 326 325 327 327 326 327 327 327 327 326 328 334 338 340 340 339 338 338 337 337 339 340 342 340 339 336 335 337 338 338 339 340 340 341 342 342 342 341 341 341 341 339 337 337 336
312 313 315 317 320 320 320 323 324 323 323 327 328 331 330 327 327 326 327 325 327 325 326 329 328 327 328 328 331 335 337 338 337 337 338 338 338 337 338 341 341 339 339 338 338 337 337 339 340 339 340 340 341 341 341 341 342 340 338 338 337 336 335
306 308 312 317 310 309 317 316 321 323 325 328 328 330 328 329 331 331 322 323 327 326 331 330 328 327 330 330 333 332 334 336 338 339 339 337 336 338 340 340 340 339 338 337 337 336 337 340 340 339 340 342 341 340 341 342 342 341 339 336 337 336 332
311 314 322 326 322 320 319 321 321 328 328 328 328 329 327 326 330 329 325 326 325 329 328 328 328 330 332 334 334 334 334 336 338 339 337 337 339 338 339 338 338 337 337 338 338 337 338 340 339 337 339 341 341 341 342 342 341 341 339 337 337 335 331
317 320 320 324 323 319 320 324 327 327 330 328 327 329 327 326 327 329 330 328 327 327 327 327 329 332 332 335 333 334 336 337 338 337 337 338 339 338 338 338 338 337 337 336 336 336 337 339 339 339 338 340 342 341 342 343 343 342 339 338 335 325 325
321 323 324 324 326 326 324 326 326 329 330 329 325 327 328 328 328 329 330 331 331 331 329 328 331 334 334 336 335 336 335 337 337 336 336 339 338 337 337 337 336 337 337 336 337 337 336 337 337 337 337 338 340 338 341 340 341 342 342 336 328 330 332

ECMWFFLT2_sfc_thetae_174.txt.gz
Theta_e
303 303 304 304 305 295 302 303 301 301 308 305 299 302 307 303 294 295 303 302 307 310 312 314 318 321 323 326 327 327 327 330 330 330 331 330 331 333 335 333 335 337 338 341 339 340 339 340 342 343 344 345 345 345 345 345 347 346 346 348 348 348 348
303 303 305 304 307 305 302 298 303 311 310 308 300 293 293 291 290 291 301 300 301 301 299 313 314 316 319 323 324 327 328 329 329 330 330 330 331 332 334 334 336 336 338 341 341 342 341 340 342 343 344 345 346 347 346 346 348 346 346 347 348 349 348
303 307 304 303 305 310 304 302 307 304 298 295 297 297 290 290 290 291 297 302 302 301 303 310 310 315 317 320 322 324 325 327 328 329 329 330 331 332 333 333 335 340 340 341 339 340 343 345 343 343 345 346 347 347 347 347 348 348 347 348 349 350 349
303 301 299 294 298 305 308 307 306 310 301 296 296 296 297 294 291 291 293 299 296 306 304 311 311 315 318 320 321 322 325 326 327 328 329 329 329 331 333 333 337 340 341 341 340 340 340 339 343 345 345 345 347 348 348 347 348 350 349 348 350 349 349
302 296 298 295 297 298 300 301 299 303 303 304 299 302 296 294 291 288 291 291 295 302 310 312 312 315 319 321 321 323 325 327 329 330 332 332 331 332 333 334 337 340 341 341 342 342 342 343 342 343 343 345 347 349 348 348 347 349 349 349 349 349 350
295 295 301 301 301 302 299 300 298 297 296 297 294 291 298 300 290 287 290 288 296 306 323 316 314 315 319 323 325 325 325 326 327 330 332 334 333 334 335 335 338 340 340 341 341 343 343 342 341 341 342 343 347 348 349 348 348 350 349 349 349 349 349
297 301 304 305 304 305 304 303 300 300 298 296 290 289 291 295 296 300 296 295 299 310 319 320 320 321 324 325 326 325 325 325 326 328 332 333 333 334 336 337 337 338 340 340 340 342 341 341 342 343 345 347 345 347 349 349 347 349 351 351 350 349 349
302 302 305 307 306 305 303 303 303 304 300 300 296 293 294 294 296 292 293 293 299 311 319 322 323 324 324 324 325 324 324 326 328 328 330 332 332 333 336 335 337 336 339 340 339 341 341 341 342 343 343 342 344 345 348 349 347 348 350 351 351 349 348
291 294 300 299 303 301 298 299 300 302 302 302 302 301 298 293 295 296 293 290 297 308 320 322 323 324 323 323 324 325 324 325 326 326 327 329 331 332 335 337 339 339 339 339 339 340 340 341 341 342 341 340 342 346 347 348 348 348 349 350 349 348 347
286 287 287 290 295 299 300 304 303 303 302 301 299 297 295 288 297 300 295 295 300 308 318 320 322 322 321 323 324 326 325 325 325 326 327 327 328 329 331 334 339 339 340 340 340 341 341 341 341 342 343 342 343 347 348 348 348 349 349 349 348 347 346
288 290 293 299 305 301 297 302 303 302 303 304 301 296 292 291 294 297 300 301 302 308 314 316 318 319 320 321 322 323 324 325 326 327 328 329 329 330 331 337 340 339 341 340 341 342 342 342 341 341 343 344 345 347 349 349 348 346 348 349 348 347 346
297 300 303 304 305 300 302 302 302 302 303 303 300 296 295 298 295 292 301 304 305 306 311 314 316 319 321 322 323 323 324 325 327 329 330 338 332 333 336 339 341 342 342 341 340 341 342 342 342 341 342 344 345 346 348 347 346 344 346 347 347 346 344
300 303 303 303 303 302 302 303 303 303 303 304 302 299 300 300 293 292 299 305 305 306 310 314 316 320 322 324 325 327 328 328 329 330 330 332 332 336 338 340 341 340 340 341 341 342 342 343 343 342 343 345 346 346 345 344 345 347 348 347 346 346 345
301 300 301 302 303 303 302 303 303 303 302 302 302 303 304 303 300 301 307 306 307 308 310 313 317 322 327 328 328 329 329 329 330 330 331 333 333 336 338 339 339 339 339 338 339 340 340 343 343 344 344 345 345 346 344 343 345 347 347 346 346 347 346
300 300 301 302 302 302 302 301 303 303 304 303 304 304 306 308 307 309 308 306 306 310 312 316 321 327 330 329 329 329 330 330 331 329 329 330 333 335 335 335 337 337 337 337 337 337 339 340 340 341 342 342 345 346 343 343 343 345 347 346 346 346 346
295 301 301 300 300 302 302 300 301 302 304 304 303 302 305 302 303 305 305 303 303 309 316 318 324 326 327 327 327 327 328 330 330 328 328 330 332 333 332 332 332 332 334 334 335 336 337 340 341 341 341 341 340 339 340 341 342 345 345 345 345 346 346
293 299 300 299 299 298 297 298 298 302 305 305 305 307 311 307 307 303 301 302 308 311 317 318 318 323 324 326 326 327 328 328 329 328 330 332 333 333 331 331 333 333 334 335 336 337 338 339 339 337 337 336 336 337 338 340 344 342 342 344 344 345 347
293 299 302 301 296 289 290 299 302 303 302 303 301 302 305 306 306 301 300 306 310 315 318 319 319 320 323 326 327 330 329 328 328 329 333 334 334 334 333 333 335 335 336 336 338 341 341 340 338 339 341 339 340 342 340 340 340 340 340 340 339 340 342
293 299 299 294 288 288 298 308 308 306 305 304 303 305 308 306 307 309 308 310 313 317 319 321 322 323 325 328 329 329 329 329 330 331 333 334 335 335 334 334 336 336 336 337 338 337 336 338 339 340 338 341 340 340 340 340 339 337 338 338 339 339 340
296 295 293 288 287 296 308 307 309 310 305 304 303 303 303 308 307 308 308 310 312 315 318 321 323 325 326 327 328 329 328 328 329 332 332 334 337 336 336 336 337 336 337 337 337 334 336 336 336 337 338 341 341 338 340 338 339 337 336 336 336 337 339
293 292 291 292 299 299 302 306 307 305 303 304 301 295 301 307 309 310 311 313 315 318 321 323 324 325 325 323 323 328 329 329 330 333 334 336 338 338 339 340 340 339 340 339 337 336 335 336 336 337 338 339 340 340 338 337 337 336 336 334 334 334 337
297 291 290 289 289 290 294 304 310 311 310 307 305 304 299 306 309 311 314 314 316 319 321 322 323 323 319 314 316 323 328 330 331 334 337 339 339 340 341 341 342 341 340 339 339 337 335 335 335 335 337 339 336 337 338 339 339 338 338 337 337 336 335
298 296 290 288 288 292 300 304 308 311 310 309 308 299 297 306 310 311 316 315 318 320 321 321 319 311 308 310 316 323 326 327 330 333 335 338 340 340 340 341 340 340 338 339 339 338 337 335 337 337 338 337 335 335 336 337 340 340 340 340 339 338 339
297 294 293 289 293 297 304 308 313 312 310 309 303 292 292 300 311 314 317 316 319 321 322 319 310 309 307 309 317 325 327 325 326 328 331 334 336 337 340 340 339 338 340 338 334 334 334 335 337 337 337 335 338 335 335 337 339 338 338 339 339 341 342
298 299 292 294 296 307 311 310 311 308 310 305 293 289 296 305 311 316 317 317 318 318 317 316 313 313 315 320 324 327 325 323 325 330 332 334 337 338 338 340 343 337 336 335 334 334 333 334 337 336 336 333 334 336 337 339 339 338 338 338 338 338 339
294 293 292 291 294 300 307 312 312 311 308 295 291 299 305 312 311 317 318 317 318 319 317 316 317 320 323 326 326 325 323 323 327 333 337 339 340 341 344 343 338 336 336 335 334 334 335 335 337 336 335 334 333 336 339 338 338 338 336 335 334 334 335
296 297 294 290 287 301 314 311 307 311 301 298 302 309 315 313 316 318 319 320 321 322 320 321 322 323 325 327 326 327 329 329 331 334 335 335 335 335 335 337 339 337 334 334 334 333 335 337 337 335 334 334 335 339 337 337 338 337 336 335 333 333 334
291 293 291 290 295 305 314 310 301 304 307 309 312 312 311 316 319 320 322 323 324 324 322 321 321 322 322 325 327 328 329 331 332 334 334 334 334 334 337 338 337 337 333 333 331 331 334 335 334 335 334 337 338 336 333 336 338 338 336 335 334 334 334
300 299 300 305 308 310 313 315 310 314 315 315 314 315 315 315 316 320 323 323 323 323 322 320 319 318 320 326 329 329 330 331 332 333 333 333 333 334 336 337 339 335 332 331 331 331 332 333 333 333 336 339 338 334 334 338 337 336 335 335 334 334 334
311 311 311 313 312 315 315 316 316 316 317 318 318 317 315 316 317 321 322 322 322 321 322 320 319 319 320 322 324 329 331 332 333 334 334 334 335 337 337 335 335 333 332 331 331 331 332 334 334 336 337 338 335 334 337 339 337 335 334 334 333 333 332
297 297 307 311 311 315 318 318 320 320 320 319 318 317 317 318 320 322 324 324 323 323 322 321 321 322 322 322 326 330 331 332 332 333 332 333 334 334 333 335 336 332 332 331 330 331 331 333 335 337 337 337 336 336 336 337 336 334 333 333 333 333 332
301 303 311 313 315 314 316 316 315 316 318 319 319 318 318 319 322 324 324 325 325 326 323 324 324 323 324 324 327 330 331 331 331 331 332 332 333 334 335 335 333 332 331 331 331 331 331 331 335 337 338 337 337 337 337 337 335 334 333 333 332 332 331
307 311 311 314 311 312 314 316 319 320 318 318 319 319 319 319 319 319 321 325 325 324 324 323 322 321 324 330 332 332 332 331 331 331 332 332 333 333 333 332 332 331 331 332 331 331 331 331 333 336 335 336 338 337 337 336 335 334 333 334 332 331 331
303 305 308 315 304 304 310 314 319 322 322 320 319 319 319 318 319 320 320 321 322 322 321 320 321 320 324 330 331 331 330 331 331 332 333 333 333 332 333 333 332 332 332 332 332 331 330 330 332 332 332 333 335 337 337 336 334 333 334 332 330 329 328
305 310 313 316 315 313 314 316 317 323 325 320 318 319 321 321 320 320 322 322 322 324 326 328 326 324 327 330 331 330 330 331 333 334 333 333 332 332 333 332 331 331 331 332 332 331 330 331 331 332 331 332 334 337 338 337 335 333 330 328 326 325 326
315 318 317 320 314 314 316 317 319 324 325 322 320 321 321 321 322 322 321 322 321 321 323 326 329 330 331 332 332 330 330 331 332 333 333 334 333 333 333 332 331 331 331 332 332 332 331 332 331 331 332 332 333 337 337 336 336 332 329 327 325 324 323
312 319 320 323 323 322 322 320 319 322 325 322 321 322 323 323 323 324 322 322 323 324 323 323 325 329 331 332 332 331 331 332 333 334 333 333 334 332 332 332 331 331 331 331 331 331 331 331 331 332 332 333 336 338 338 336 334 330 327 326 324 323 324

ECMWFFLT2_sfc_thetae_180.txt.gz
Theta_e
298 298 299 298 298 291 294 296 292 292 296 300 296 300 298 296 291 290 295 298 300 306 308 311 316 319 320 322 323 324 324 324 324 325 326 327 329 331 331 333 333 335 337 337 338 339 339 339 340 340 341 343 343 343 342 342 343 343 344 346 345 346 346
298 297 299 299 300 297 296 293 293 302 304 301 295 290 288 287 287 287 295 297 297 296 297 308 311 314 317 319 321 323 323 323 323 324 325 327 328 329 332 333 334 336 337 338 338 339 339 339 340 340 342 343 344 344 343 342 343 342 343 345 345 346 345
296 299 300 298 302 304 297 296 299 299 295 295 294 292 286 286 287 286 290 297 298 297 298 304 309 312 314 317 319 320 322 323 323 323 325 328 328 329 330 331 333 335 336 337 338 340 343 342 341 341 342 343 344 345 345 344 343 343 344 345 346 346 346
298 296 295 290 293 300 303 304 303 304 297 292 294 294 292 289 287 287 288 293 294 301 302 305 308 309 313 315 317 319 322 324 324 323 325 327 327 328 330 331 333 335 337 339 340 340 340 341 340 341 343 343 344 344 345 344 344 344 345 345 346 345 346
296 293 293 291 294 296 299 300 297 300 297 300 298 297 295 292 288 285 287 287 291 299 304 308 309 311 313 316 319 319 321 324 325 325 325 327 327 328 329 330 332 334 336 338 339 340 340 341 342 343 343 343 344 344 345 346 344 343 343 344 345 345 346
291 290 292 295 297 300 299 300 297 297 293 296 293 291 294 293 289 284 287 287 291 300 310 311 311 311 314 317 320 320 321 323 325 326 326 327 328 328 329 330 332 333 336 337 338 339 339 339 340 340 342 344 344 345 345 345 345 344 344 344 345 345 346
293 294 300 298 298 299 299 302 300 297 295 294 287 286 290 293 296 296 291 290 290 302 312 313 313 312 314 317 320 320 321 322 324 325 328 328 328 329 329 330 331 332 334 336 337 338 338 338 339 340 341 343 344 344 345 346 345 346 347 344 344 346 346
293 296 297 300 300 300 299 297 297 298 297 298 295 289 292 291 294 294 293 290 291 302 314 316 317 314 316 317 319 320 321 322 324 325 327 329 330 331 332 331 332 332 334 335 336 337 337 338 339 340 342 344 345 345 345 345 345 347 348 346 346 345 345
287 290 296 297 297 298 293 294 296 298 297 297 295 294 292 293 293 293 291 287 290 301 312 315 317 319 319 320 321 321 322 322 324 325 326 327 329 330 332 332 333 334 335 336 336 337 337 338 339 340 339 338 340 343 346 346 346 347 347 347 345 344 345
284 284 284 286 288 293 294 298 297 297 298 295 297 296 292 288 294 294 290 288 293 300 310 314 317 317 318 319 320 323 321 322 324 324 325 325 327 328 330 331 333 333 335 337 336 337 338 338 338 337 337 340 341 343 345 347 345 345 346 347 346 346 346
289 290 290 293 299 293 294 296 296 296 298 298 297 293 290 290 290 294 293 294 298 305 310 311 315 316 316 318 319 321 322 321 322 322 323 325 326 327 329 332 333 334 334 335 336 337 338 338 338 336 336 337 340 342 344 347 346 346 346 346 346 346 347
295 293 294 297 300 297 293 296 296 295 297 297 296 294 291 294 296 289 295 298 301 303 306 310 312 315 316 317 319 319 319 320 322 323 324 333 326 328 329 330 333 334 334 335 335 336 337 338 338 337 337 337 338 339 341 345 346 346 347 347 346 347 347
293 293 296 301 299 296 295 297 297 296 296 296 297 295 294 297 292 292 294 300 301 303 307 311 314 317 318 319 320 321 321 322 322 323 324 326 326 327 329 329 330 333 334 334 335 336 338 338 338 339 338 338 339 340 341 344 346 346 347 347 346 347 347
296 295 296 297 298 296 296 296 297 297 297 297 297 296 297 298 297 296 298 302 304 305 307 311 314 318 319 319 320 320 320 321 323 322 322 324 326 328 329 330 332 334 336 335 335 336 337 338 338 338 339 339 339 339 341 343 344 346 347 346 346 346 346
296 294 300 297 296 298 298 295 296 297 296 297 298 299 300 305 300 301 300 302 303 306 307 312 316 318 320 321 321 320 320 322 324 323 323 324 326 327 329 330 332 335 336 336 336 336 337 338 338 338 339 340 341 341 341 342 343 345 346 345 346 346 346
293 294 295 295 296 296 298 296 297 295 296 296 298 298 303 300 299 300 302 300 301 303 312 315 317 319 319 319 319 320 321 322 323 323 323 325 326 327 329 331 332 334 335 335 335 335 336 336 337 338 338 339 340 341 342 342 343 345 345 344 344 344 345
288 292 293 292 293 296 295 293 295 297 297 298 300 301 305 303 304 301 298 300 304 304 314 312 315 317 318 318 318 320 321 322 324 323 324 325 327 328 328 331 333 334 335 336 336 336 335 335 336 338 339 339 339 341 341 341 343 341 341 341 341 341 342
289 292 294 294 290 286 286 294 297 299 299 299 299 300 304 305 305 303 303 304 306 310 314 311 313 316 317 320 321 323 323 324 324 324 325 326 327 328 329 331 332 332 333 334 336 337 337 337 337 338 339 339 339 340 340 340 340 339 339 339 339 339 340
292 294 294 291 285 285 293 299 301 301 300 302 300 302 304 306 306 305 305 307 310 315 315 313 316 318 320 323 322 324 325 325 326 326 327 327 328 329 329 330 331 332 334 336 337 337 337 337 337 337 338 339 337 337 337 337 337 337 338 338 338 338 339
291 289 288 283 284 290 297 299 304 305 301 301 303 300 303 307 304 305 305 307 310 315 317 317 318 320 322 324 324 325 326 327 327 327 327 327 329 330 331 331 332 333 335 336 336 336 338 339 337 336 336 337 338 338 339 338 337 337 336 336 337 338 339
290 288 286 289 294 296 301 301 301 300 298 301 300 296 298 304 302 305 305 309 313 316 318 319 321 322 322 319 322 324 326 326 328 329 329 330 331 333 333 334 333 335 337 338 337 337 336 336 335 335 337 339 339 339 339 339 339 338 337 336 336 337 340
290 286 287 288 289 288 292 297 303 306 302 300 303 302 299 303 303 305 307 310 314 317 319 320 320 319 316 313 315 320 324 326 326 328 331 332 334 335 336 336 336 336 337 337 337 336 334 334 334 335 338 339 339 338 338 339 338 337 337 337 337 337 338
291 288 284 283 284 288 293 298 302 307 305 302 303 300 295 300 303 306 309 311 315 319 320 320 319 315 309 310 315 320 322 324 326 330 333 334 335 337 337 338 337 337 337 337 338 336 333 333 334 336 337 337 337 337 338 337 337 335 335 336 336 337 338
292 286 286 288 288 294 302 300 302 305 303 303 301 291 290 299 303 308 311 313 316 319 320 320 317 314 309 310 315 320 324 325 328 331 334 335 336 337 339 339 339 338 338 339 335 333 332 332 335 335 335 334 336 335 337 338 337 337 339 341 342 341 341
295 295 288 288 292 299 303 305 304 305 304 301 293 288 296 303 305 311 313 314 318 320 320 320 316 316 317 318 319 321 324 326 328 331 335 336 337 337 338 339 343 337 337 336 334 333 332 333 335 335 335 336 336 338 339 338 339 340 340 341 340 339 338
292 291 290 290 290 297 301 302 307 305 305 293 289 297 301 305 307 312 315 316 319 321 321 319 319 320 316 317 318 323 325 328 326 330 333 335 337 340 343 344 339 335 335 332 331 331 331 333 334 334 334 335 336 338 338 337 338 338 338 337 337 337 336
290 290 291 288 288 299 306 306 303 307 299 297 298 303 308 310 311 314 317 320 321 322 321 320 318 319 319 319 321 324 324 326 329 331 333 334 335 336 337 337 338 335 333 332 331 332 333 335 334 333 335 337 337 338 336 336 336 336 336 336 336 335 335
288 289 288 288 294 300 306 309 299 301 305 305 305 310 309 313 314 315 318 320 322 323 322 318 317 320 320 321 323 322 323 327 329 331 332 332 333 334 335 336 337 338 331 331 331 332 334 335 333 332 335 337 338 336 335 336 336 336 336 336 335 334 334
296 294 291 296 303 306 308 309 309 308 309 312 310 314 312 313 313 317 319 321 322 322 320 319 321 320 322 323 322 323 324 327 330 331 332 333 334 334 334 334 339 336 331 331 330 331 334 334 332 331 334 338 337 335 335 336 335 334 334 334 334 333 332
301 304 304 306 308 309 311 312 314 314 315 313 313 312 313 315 317 319 321 321 322 320 320 321 320 322 322 322 322 323 326 329 330 331 332 332 332 333 333 334 338 333 331 330 330 331 332 333 331 333 334 339 337 335 337 337 335 335 334 334 333 331 331
295 296 302 306 308 310 310 313 315 316 316 315 317 316 316 319 318 320 321 322 322 321 322 323 323 321 322 323 323 324 326 328 329 331 331 331 332 332 332 334 338 331 330 329 328 329 330 331 332 334 334 338 337 336 336 336 335 335 335 334 332 331 330
299 302 305 307 309 310 311 312 313 314 315 316 316 317 319 322 321 321 321 322 321 322 322 323 323 323 323 323 323 325 327 328 329 330 330 330 331 331 331 333 332 329 329 329 329 329 330 331 333 335 336 337 337 337 336 336 335 335 334 333 331 330 330
301 304 305 307 307 310 312 314 314 314 316 316 316 318 320 320 321 321 321 324 322 322 323 322 322 323 324 325 325 327 327 328 329 330 329 330 331 330 330 331 331 329 329 329 328 329 331 331 333 334 335 337 337 337 336 335 334 334 334 333 331 330 331
296 302 305 306 303 303 308 313 315 315 318 316 317 318 319 320 320 320 320 320 322 322 321 321 323 323 324 325 327 328 329 329 329 329 329 329 329 329 329 330 329 329 331 328 328 329 329 330 333 333 334 336 337 337 335 334 334 334 334 332 331 330 329
297 301 305 308 308 307 309 313 317 317 319 317 317 316 317 317 319 321 321 320 321 322 322 321 322 323 324 325 328 328 329 329 329 329 329 329 329 329 329 329 328 328 327 331 330 331 330 332 333 333 334 335 335 336 335 334 334 334 333 332 329 327 328
306 307 309 312 310 313 314 317 317 320 320 318 318 319 320 321 320 319 320 321 321 320 321 323 322 323 325 327 329 329 328 328 328 329 329 331 330 330 329 329 328 328 329 330 330 330 329 331 332 333 334 334 335 336 335 334 334 333 332 330 328 326 327
311 314 315 316 314 319 319 319 319 321 323 322 319 319 319 320 320 321 320 320 321 321 321 322 322 324 326 328 329 329 328 328 329 330 330 330 330 329 329 329 328 329 329 330 329 328 328 330 330 333 334 334 336 336 335 334 333 330 329 328 326 325 327

ECMWFFLT2_sfc_thetae_186.txt.gz
Theta_e
311 311 313 312 312 301 308 308 304 306 312 308 305 305 305 303 301 299 308 307 309 315 317 321 329 329 329 331 332 331 333 336 339 338 339 340 341 341 342 341 342 344 347 348 349 352 350 350 352 352 354 353 355 355 354 358 359 360 360 362 360 360 361
311 313 313 313 313 312 309 303 307 313 314 311 306 299 304 300 297 302 306 302 304 307 304 320 323 324 325 328 329 328 332 334 336 338 340 342 342 342 343 343 345 346 348 350 351 350 350 352 354 352 355 354 355 353 350 355 354 359 356 357 356 357 360
310 311 311 309 312 313 309 308 315 305 301 299 305 302 295 296 296 299 302 305 306 309 310 313 315 317 321 326 330 330 328 331 335 337 340 343 343 343 343 344 345 346 349 350 350 349 350 354 355 353 353 353 351 350 352 354 353 355 356 355 355 356 357
309 309 308 302 306 310 312 314 310 312 309 305 303 304 304 303 297 298 300 304 302 312 313 313 314 319 323 325 327 328 329 331 334 337 340 342 343 343 343 343 346 347 347 347 351 351 352 353 353 351 352 352 350 353 356 355 355 355 355 354 355 354 354
308 303 306 304 307 305 305 306 305 308 307 311 310 309 305 302 301 301 300 299 305 313 319 318 320 322 325 326 327 330 332 333 334 338 340 343 344 344 344 343 345 344 344 345 347 349 351 353 353 352 352 352 351 353 354 356 355 352 350 351 352 354 355
303 305 310 309 309 310 308 306 305 307 304 303 299 300 308 306 303 299 302 300 309 314 325 328 326 328 327 330 329 328 332 335 340 340 343 345 345 346 345 345 344 343 345 345 347 350 354 351 350 349 350 353 352 354 355 357 356 355 350 348 352 354 355
305 308 310 312 311 311 310 310 307 310 309 308 303 296 304 306 307 308 308 304 308 322 325 327 329 330 332 331 331 330 334 339 343 342 343 346 347 346 345 346 345 348 349 348 348 351 352 351 352 352 352 352 352 358 359 358 356 356 354 352 352 355 355
309 310 311 312 312 310 308 310 311 310 307 308 306 306 310 307 307 304 305 302 306 322 331 330 330 333 336 338 335 334 334 339 345 346 346 347 347 347 346 348 348 351 351 351 351 352 351 352 353 353 354 355 355 357 358 358 354 356 357 356 354 353 354
304 306 308 308 311 310 307 307 309 311 311 310 310 311 312 306 307 306 303 298 305 322 330 334 335 331 331 331 335 339 334 337 342 346 348 348 348 348 348 350 351 352 352 352 353 354 353 352 353 354 354 355 355 354 354 353 352 354 356 356 355 354 355
295 295 296 299 302 305 308 309 309 310 309 309 308 304 308 301 308 308 304 304 311 318 328 330 330 328 331 332 334 339 340 339 341 344 346 347 347 347 347 350 351 351 354 356 357 356 355 353 354 355 355 353 352 352 352 352 352 354 355 357 356 354 354
302 305 307 310 311 307 304 307 309 308 310 311 310 309 306 303 310 307 308 308 309 312 318 327 328 329 328 332 336 334 338 342 344 346 347 347 348 348 349 349 350 353 353 353 356 357 357 356 354 354 355 353 353 353 353 354 354 355 356 356 356 354 353
308 309 309 309 310 306 307 307 306 309 308 310 309 306 304 311 307 302 309 314 308 310 313 318 325 328 328 329 334 335 337 340 341 345 348 347 349 350 351 350 350 351 353 353 354 356 357 357 357 356 356 355 354 354 354 355 357 357 358 358 356 355 355
309 309 309 309 308 308 308 308 308 307 308 309 308 308 309 310 306 302 310 313 311 311 313 316 320 326 328 328 333 337 339 341 344 346 346 346 347 348 348 351 352 353 353 354 355 356 356 357 357 358 358 357 356 356 357 357 358 358 359 360 358 357 356
308 308 308 309 308 308 308 308 308 309 309 309 309 309 310 309 310 310 310 312 311 313 314 316 319 324 324 329 338 342 341 340 343 343 343 344 347 347 347 349 351 353 355 356 356 356 356 356 356 357 357 357 357 357 357 358 359 360 359 357 356 356 355
306 308 309 308 308 308 307 308 308 308 309 309 309 309 310 311 310 311 312 313 312 320 329 332 336 334 337 338 335 334 339 341 340 341 341 344 346 346 348 351 351 352 354 355 356 356 356 357 357 357 358 358 359 359 359 358 358 359 359 357 356 356 355
304 307 307 307 307 307 307 307 308 308 307 307 308 308 310 310 309 312 313 310 310 318 329 332 337 335 332 329 331 335 339 340 341 340 342 342 343 345 349 351 351 352 354 354 355 355 356 357 358 358 358 358 358 357 358 358 358 358 358 357 356 356 357
303 307 308 306 306 306 303 305 308 309 309 310 310 312 312 313 312 311 307 308 314 320 329 326 331 330 330 328 330 333 339 341 341 341 340 341 341 343 347 348 349 351 352 354 355 356 357 359 358 359 360 359 357 358 357 358 359 358 357 356 357 356 357
303 307 306 307 304 297 299 311 313 312 309 309 309 310 312 315 314 313 314 321 327 328 325 318 325 328 330 330 334 337 340 340 340 341 340 339 340 342 344 347 349 351 351 352 355 357 358 359 359 358 357 356 357 358 358 359 357 357 357 357 356 355 356
303 307 306 301 297 299 315 316 316 314 313 312 311 312 313 315 317 315 317 319 322 327 324 322 325 330 334 333 341 340 339 341 339 339 340 340 341 342 344 348 348 350 351 353 356 358 359 359 359 356 355 356 357 356 357 356 356 356 356 356 357 356 355
308 305 302 295 298 312 312 314 315 318 315 314 312 311 313 316 316 316 316 317 325 327 331 335 341 340 338 340 342 342 345 341 336 335 338 341 341 343 346 348 351 351 352 354 355 356 360 360 357 355 355 356 354 355 356 355 356 355 355 355 354 355 355
302 303 301 301 311 308 309 308 313 312 311 313 311 306 311 318 318 317 317 323 328 327 330 332 336 337 334 333 336 340 340 343 337 335 336 338 340 343 347 347 348 350 354 353 356 359 359 357 355 353 354 354 353 352 352 353 353 353 352 351 351 352 351
307 302 300 301 301 299 305 311 316 317 318 318 316 312 310 316 317 319 320 324 328 331 332 333 335 337 326 320 329 337 338 341 340 339 340 340 343 342 344 347 348 352 353 355 356 355 356 355 354 354 354 353 353 352 351 352 351 350 350 349 351 350 349
304 304 300 299 298 302 312 313 315 318 320 316 319 311 306 316 317 320 321 323 329 331 329 332 336 324 318 318 324 336 337 339 341 340 340 341 341 343 346 347 349 350 353 353 353 356 355 352 352 353 354 352 351 350 350 350 349 349 349 349 348 348 349
305 303 300 299 304 305 313 315 316 316 319 317 314 301 302 314 317 321 323 322 326 330 333 334 331 321 315 316 328 334 337 339 340 340 340 340 342 343 344 345 349 354 357 355 352 353 353 352 353 353 352 351 350 348 348 349 347 347 348 348 350 349 349
304 304 302 304 305 314 317 316 319 317 317 315 304 298 307 321 322 325 324 324 330 334 336 332 324 325 332 335 337 343 340 342 342 342 343 344 344 343 344 347 354 352 351 349 348 352 354 352 351 352 351 350 348 347 347 346 346 349 351 351 349 348 348
303 304 301 301 306 315 317 321 318 319 314 304 302 320 326 324 327 327 325 325 331 337 338 332 327 337 344 348 347 344 346 346 349 348 347 345 345 346 351 352 350 348 345 351 352 352 353 350 350 350 349 348 347 347 346 346 347 349 347 347 346 347 345
306 306 302 299 295 318 319 319 315 318 310 315 320 326 328 322 328 327 326 328 333 336 336 336 339 337 339 340 341 345 347 349 348 348 347 348 348 348 349 349 349 346 346 347 350 351 349 348 349 348 348 346 346 346 345 346 346 347 346 346 346 345 344
303 303 301 300 315 318 323 320 315 320 326 326 329 325 327 326 326 327 328 330 332 331 337 336 332 335 339 342 344 345 346 346 348 348 348 348 350 347 346 346 346 345 346 349 350 349 348 349 349 347 347 346 345 346 346 346 346 346 346 346 346 344 343
308 309 311 316 322 323 324 325 323 327 328 329 329 328 326 326 327 330 331 332 335 335 338 335 334 333 335 338 339 342 344 345 345 346 346 346 346 344 344 343 348 348 347 351 349 347 347 347 348 348 348 345 345 345 345 346 346 346 345 344 343 341 340
317 319 320 322 323 323 324 325 327 326 328 331 330 329 328 330 331 329 331 336 336 337 339 334 332 332 333 335 336 339 341 343 345 346 346 345 345 345 346 349 353 356 355 353 351 347 345 346 346 347 347 347 345 345 346 347 346 345 344 343 341 340 340
310 305 321 320 320 323 324 325 329 331 332 333 332 333 334 333 332 330 330 335 337 339 343 337 339 339 340 341 342 344 345 346 346 344 346 345 345 345 345 351 354 352 349 346 347 347 345 344 344 344 346 344 347 347 346 345 344 345 343 342 341 340 340
312 315 319 320 323 326 327 327 327 329 331 333 336 335 337 336 335 332 335 334 337 341 338 339 337 333 336 341 344 344 346 345 345 346 346 347 347 349 351 353 351 348 346 345 345 345 344 343 344 344 344 345 346 346 344 344 344 344 342 342 340 339 338
316 320 321 321 324 324 324 325 328 330 331 333 335 335 336 336 335 335 336 336 336 336 336 337 333 331 332 334 335 335 340 342 343 346 347 350 352 352 352 352 351 348 348 347 347 346 343 343 344 345 346 345 346 345 346 346 346 343 341 339 339 338 338
312 315 318 321 316 316 321 322 326 330 333 334 334 334 334 337 338 336 334 335 337 338 339 338 333 332 333 332 333 331 339 341 345 348 350 349 349 352 353 352 352 351 350 349 347 345 343 344 344 345 346 346 346 345 346 346 346 344 341 340 338 338 338
312 319 323 327 326 324 325 326 329 331 334 334 333 333 333 334 336 337 335 335 336 337 339 341 334 339 340 339 336 335 335 342 347 347 348 347 349 350 351 350 350 349 349 349 347 345 343 344 344 345 346 346 347 347 347 346 346 345 342 340 339 337 337
320 325 324 327 328 324 326 329 331 331 336 332 331 333 334 335 336 336 336 336 336 336 336 338 340 340 339 339 336 336 337 341 347 347 347 346 348 349 349 348 349 348 348 348 346 344 344 344 344 345 345 346 347 347 347 347 346 346 344 341 339 337 337
322 327 328 330 330 329 329 331 333 333 334 332 330 332 334 335 337 338 338 338 338 336 333 334 338 339 340 340 340 341 339 343 345 347 349 349 349 346 344 345 348 348 347 347 346 344 344 344 344 344 344 346 347 345 348 347 346 344 343 341 338 337 337

ECMWFFLT2_sfc_thetae_192.txt.gz
Theta_e
312 311 312 311 312 301 308 308 303 306 313 309 305 306 306 305 303 300 307 307 310 315 317 319 321 321 324 325 326 326 327 328 329 330 329 328 332 337 338 340 340 347 342 344 346 347 346 347 348 349 349 351 357 359 360 360 361 361 363 361 357 359 360
312 314 313 312 312 312 309 304 307 313 314 312 306 298 303 300 296 301 306 303 304 306 308 317 318 318 320 323 323 325 326 328 323 328 331 335 335 338 345 340 346 350 346 347 350 349 349 349 348 348 352 349 355 360 358 360 359 358 355 357 357 359 357
312 314 312 309 312 314 309 308 316 306 301 300 306 303 295 295 296 299 302 305 305 307 310 314 315 316 318 321 323 324 324 324 327 329 331 337 338 340 341 343 345 349 347 347 347 348 349 354 350 348 349 350 356 356 358 360 359 358 357 356 357 357 357
311 311 309 301 305 311 314 314 311 314 309 305 302 303 303 302 297 297 300 303 302 308 312 312 314 318 320 320 320 323 325 325 330 331 332 332 333 340 341 339 340 343 346 346 348 349 349 350 351 348 346 351 356 357 359 359 360 360 358 356 353 352 354
311 304 307 304 306 304 306 307 306 308 308 311 309 308 304 301 300 299 299 302 306 312 319 316 318 319 321 321 322 324 329 328 329 331 331 334 336 338 344 343 345 344 344 346 347 350 352 356 355 354 353 355 355 355 356 358 359 356 355 354 352 351 351
304 306 311 310 310 309 308 307 305 307 305 303 300 300 308 305 302 297 299 302 308 314 320 323 320 322 323 324 322 322 327 329 332 334 333 336 338 338 340 343 343 343 345 346 348 351 351 352 353 354 355 357 351 356 356 359 359 356 351 351 349 352 351
306 309 312 313 313 313 311 310 307 309 308 307 304 295 303 306 306 307 307 304 306 318 319 321 323 325 327 328 327 327 330 331 332 334 335 336 339 339 344 344 346 348 347 347 350 351 351 351 353 354 355 353 350 357 360 360 360 360 358 354 351 355 354
311 312 313 313 313 312 309 310 311 309 305 307 305 305 307 303 305 304 303 302 305 317 323 324 324 324 330 333 329 328 327 331 336 336 338 340 340 344 341 349 349 350 349 351 353 352 352 354 356 355 356 358 359 359 360 361 358 357 358 360 358 356 354
304 306 309 308 311 310 307 307 309 310 310 309 309 309 310 305 305 305 305 300 307 317 325 325 326 323 325 328 326 331 327 331 334 339 342 344 341 344 340 345 347 349 348 348 353 355 358 356 356 358 358 359 360 360 360 360 361 361 362 362 361 359 357
295 295 297 299 302 304 307 309 309 310 309 309 307 302 307 299 307 309 306 304 311 317 323 322 322 323 327 328 328 329 329 332 334 333 337 342 340 343 344 346 347 345 349 352 354 354 356 355 356 359 360 360 360 362 362 362 363 363 363 361 361 359 359
302 305 309 309 309 307 303 306 307 308 310 310 310 308 306 302 308 307 310 309 310 312 317 319 320 323 323 325 325 327 329 334 337 337 338 337 340 344 344 345 346 348 349 349 351 353 354 353 351 357 359 361 360 361 362 363 363 363 364 364 362 361 359
307 308 308 310 310 307 307 306 306 308 308 309 308 305 305 316 306 302 312 319 308 310 315 316 319 323 324 323 326 327 332 336 334 334 337 340 341 346 347 345 346 345 346 351 353 354 354 356 357 356 358 360 359 360 362 363 364 363 362 362 361 360 359
309 309 310 311 310 309 310 308 307 307 308 308 306 307 309 309 305 303 314 316 311 313 315 317 320 322 323 322 326 329 332 332 337 338 337 336 337 341 344 346 347 347 344 347 349 351 354 355 354 355 357 360 360 359 361 362 363 362 362 360 360 359 359
308 309 309 311 310 310 309 309 309 309 308 308 308 308 310 310 310 313 312 316 312 315 315 318 319 321 321 322 330 331 331 330 334 335 337 336 339 337 340 346 346 347 348 349 351 352 352 354 354 356 357 357 359 359 357 359 362 362 362 360 360 359 359
306 309 310 310 310 310 308 309 310 310 310 309 309 309 310 310 310 311 312 313 312 317 322 322 321 323 322 325 326 326 330 333 334 333 335 337 338 339 338 340 342 346 347 346 347 347 349 351 355 355 356 357 355 357 360 359 361 362 362 361 361 361 360
304 308 309 309 309 310 309 308 309 309 308 307 308 308 310 309 309 311 310 310 310 317 323 322 327 326 324 322 325 329 329 332 336 334 334 333 333 337 339 337 341 347 346 346 346 348 347 352 354 352 353 354 354 352 356 358 360 363 363 362 360 360 361
303 308 309 308 308 307 304 306 308 310 310 311 311 312 313 311 312 309 307 309 316 320 323 319 320 323 322 324 324 327 331 334 334 334 332 333 337 337 340 344 346 345 349 351 350 348 350 350 351 351 352 355 354 354 355 359 362 362 362 360 360 359 360
304 307 308 308 304 297 299 311 313 312 310 310 308 309 311 313 312 312 315 316 320 318 318 316 317 325 323 329 334 332 333 331 332 333 334 332 335 340 342 343 346 347 348 349 348 345 342 343 342 347 353 356 355 355 357 358 361 362 361 360 357 357 358
303 308 308 302 297 299 311 314 314 315 313 313 311 311 312 313 314 314 314 317 319 320 319 320 323 328 330 328 330 329 332 334 331 332 335 335 336 335 340 342 343 347 352 351 346 341 341 343 343 345 343 349 353 354 358 360 362 361 360 358 358 357 357
308 305 304 296 298 309 312 313 314 316 315 314 313 310 313 314 314 316 314 317 319 322 320 321 331 330 324 326 331 331 334 333 331 332 331 337 337 336 338 340 346 347 348 348 349 343 342 341 342 344 342 346 345 351 358 358 360 359 357 357 357 355 356
301 304 303 302 311 307 309 309 311 312 310 311 310 306 310 315 316 316 315 318 321 320 320 327 327 329 327 327 326 329 331 331 329 333 333 335 335 338 339 339 343 348 351 349 349 349 349 349 353 343 343 349 349 353 356 356 356 356 356 355 354 356 355
306 302 300 302 301 298 305 311 315 317 316 316 316 313 310 315 317 318 317 318 318 324 328 328 329 333 325 321 323 327 328 330 329 330 332 332 336 335 336 340 345 346 350 351 350 350 350 353 356 358 357 355 357 355 355 355 355 353 353 352 353 354 354
304 302 299 299 299 303 318 316 315 317 317 316 317 310 305 320 317 318 318 317 320 321 324 327 329 324 319 320 325 332 329 329 329 329 330 332 334 333 335 337 339 342 345 348 351 351 350 350 356 358 357 355 354 352 353 352 352 352 351 352 352 351 352
304 303 300 299 305 313 317 316 316 317 317 317 312 300 302 314 316 318 320 320 322 325 329 328 329 324 318 318 326 329 327 328 328 330 331 332 332 332 335 337 341 345 349 346 344 346 347 353 356 356 353 351 351 351 351 352 350 349 351 351 353 353 354
304 304 303 305 306 316 316 315 318 317 318 314 304 299 311 320 320 321 322 323 329 331 330 330 326 332 333 336 342 334 334 330 329 332 331 332 333 334 336 340 349 345 342 340 341 346 352 355 353 353 351 351 350 350 351 348 347 349 351 354 353 354 353
302 303 301 302 308 322 322 320 318 320 313 303 303 321 331 324 320 321 320 323 329 330 332 330 331 333 332 336 343 338 334 331 345 339 335 333 335 337 341 348 347 343 339 339 349 351 353 352 351 351 350 351 349 348 348 345 347 352 352 352 352 350 349
306 306 302 299 295 317 322 319 317 320 309 319 327 329 327 320 319 320 320 321 328 329 327 329 333 330 331 331 331 331 335 337 336 334 337 339 336 339 342 340 341 341 341 344 348 350 349 350 349 349 349 347 347 348 345 346 349 351 350 349 348 348 348
302 301 300 300 318 318 323 323 315 326 328 330 331 328 323 325 322 322 326 326 328 327 326 327 331 330 330 330 331 331 334 333 336 336 337 339 341 340 342 340 341 341 344 347 350 351 351 352 353 350 351 347 347 346 346 350 349 349 348 348 349 347 347
314 306 310 319 326 323 323 326 327 329 331 331 330 331 328 326 327 331 328 327 329 328 329 332 332 329 330 330 328 327 332 333 333 334 335 338 341 340 340 339 344 346 346 347 348 349 350 350 352 353 350 348 346 345 350 351 349 348 348 347 346 346 345
321 321 322 323 323 325 323 326 328 329 331 330 331 331 330 331 332 331 329 327 329 333 335 336 337 337 332 330 332 333 332 333 335 340 337 338 337 338 340 342 344 353 351 350 349 347 348 349 348 352 348 348 346 348 350 349 350 350 347 346 345 345 344
311 305 324 321 322 325 326 327 330 333 333 333 334 333 335 332 331 331 331 332 333 338 340 339 341 340 338 336 337 339 339 340 341 340 342 342 342 340 339 345 350 351 348 346 346 345 346 346 347 346 348 345 348 351 352 347 347 349 348 346 345 345 344
315 313 319 323 325 326 326 327 328 330 334 336 336 336 335 333 331 331 333 334 332 335 334 336 336 335 335 335 337 336 336 339 342 343 343 341 341 346 348 350 350 348 348 346 345 344 345 346 347 345 342 344 346 347 345 344 346 348 346 346 343 343 342
316 320 324 324 324 323 324 327 329 332 333 335 336 337 336 335 335 333 331 332 330 330 331 333 334 334 333 332 335 333 336 338 339 343 345 345 349 349 347 348 350 350 349 346 347 344 344 346 343 347 346 344 345 345 346 347 350 346 344 346 345 343 342
311 312 318 323 316 316 322 326 327 330 334 337 336 338 337 335 334 334 329 327 329 332 331 333 331 334 333 334 336 334 337 339 338 338 338 338 336 338 344 349 348 350 351 350 347 346 346 347 346 346 347 347 347 345 347 349 350 348 347 345 343 341 341
312 320 326 327 326 325 324 326 328 329 331 334 336 337 338 337 337 337 335 334 334 333 334 332 331 331 334 334 336 336 335 337 338 338 337 336 335 333 337 343 347 348 348 349 349 347 347 349 346 347 348 347 349 349 350 351 349 349 348 346 345 341 343
321 324 327 329 327 323 323 327 327 326 329 330 332 337 339 339 339 339 338 335 334 337 338 333 333 333 333 334 334 335 339 338 337 337 337 336 336 338 342 347 348 348 347 347 347 348 348 348 347 348 346 347 351 349 350 350 351 350 348 347 343 342 341
323 326 328 329 328 326 326 328 327 327 329 329 329 333 336 337 339 339 339 339 335 335 333 331 334 335 335 336 337 339 339 340 339 337 337 338 341 343 343 346 347 348 348 347 349 349 348 346 346 345 346 347 348 347 351 349 349 349 349 346 343 342 344